GSAT-31

Last updated on Thu Oct 30 2025 00:02:51 GMT+0000 (Coordinated Universal Time)

1 44035U 19007B 25301.83839788 .00000135 00000+0 00000+0 0 9995 2 44035 0.0581 83.1362 0005147 158.6104 145.4114 1.00270501 24649
UTC large
Height (km)
Speed (km/s)
/
Latitude / Longitude
Inclination (degrees)
Orbital Period (minutes)
Azimuth
Elevation
Range (km)
Doppler Factor

Next 0 passes for location: London (51.5072 / 0.1276)

Sorry there are no passes over London.